User: anonymous   Login
Location: Hardenberg
(52.5670°N, 6.6170°E)
Time: 08:08:02
(UTC+02:00)
Language:

ISS - Orbit

View from above orbital plane
View from above orbital plane
View from above satellite
View from above satellite

Ground track
Ground track

The orbit data is extracted from the following two-line orbital elements,

1 25544U 98067A   21163.78232304  .00000630  00000-0  19627-4 0  9990
2 25544  51.6447   4.5128 0003459  88.2716  19.7210 15.48976213287915
Epoch (UTC): 12 June 2021 18:46:32
Eccentricity: 0.0003459
inclination: 51.6447°
perigee height: 417 km
apogee height: 422 km
right ascension of ascending node: 4.5128°
argument of perigee: 88.2716°
revolutions per day: 15.48976213
mean anomaly at epoch: 19.7210°
orbit number at epoch: 28791

The dashed part of the orbit path shows where the satellite is in the earth's shadow,  

DLR